KO4YAW Weather Reports


time (UTC)temp
C
wind
direction
speed
KPH
gust
KPH
rain 1hr
cm
rain 24hr
cm
rain mn
cm
humidity
%
barometer
mb
20260906213606 34 76 1.6 3.2 0.00 0.00 0.00 27 1016.7
20260906212106 33 190 3.2 6.4 0.00 0.00 0.00 27 1017.0
20260906210606 33 240 3.2 4.8 0.00 0.00 0.00 28 1017.2
20260906205106 34 197 4.8 8.0 0.00 0.00 0.00 27 1017.2
20260906203606 33 174 3.2 8.0 0.00 0.00 0.00 27 1017.5
20260906202106 32 82 1.6 4.8 0.00 0.00 0.00 30 1017.6
20260906200606 32 140 1.6 4.8 0.00 0.00 0.00 29 1017.8
20260906195106 31 125 0.0 1.6 0.00 0.00 0.00 30 1017.9
20260906193606 31 190 0.0 3.2 0.00 0.00 0.00 31 1018.2
20260906192106 30 356 1.6 3.2 0.00 0.00 0.00 33 1018.4
20260906190606 30 84 0.0 1.6 0.00 0.00 0.00 33 1018.8
20260906185106 29 307 1.6 3.2 0.00 0.00 0.00 36 1019.0
20260906183606 28 206 3.2 6.4 0.00 0.00 0.00 38 1019.3
20260906182106 28 336 1.6 4.8 0.00 0.00 0.00 37 1019.6
20260906180606 27 24 1.6 4.8 0.00 0.00 0.00 39 1019.8
20260906175106 26 348 6.4 11.3 0.00 0.00 0.00 42 1020.2
20260906173606 25 149 0.0 1.6 0.00 0.00 0.00 46 1020.4
20260906172106 25 322 3.2 8.0 0.00 0.00 0.00 45 1020.6
20260906170606 25 350 3.2 6.4 0.00 0.00 0.00 47 1020.9
20260906165106 24 306 4.8 6.4 0.00 0.00 0.00 53 1021.0
20260906163606 23 331 6.4 11.3 0.00 0.00 0.00 55 1021.0
20260906162106 23 279 1.6 6.4 0.00 0.00 0.00 58 1020.9
20260906160606 22 288 3.2 6.4 0.00 0.00 0.00 63 1021.0
20260906155106 21 289 1.6 3.2 0.00 0.00 0.00 67 1020.9
20260906153606 21 340 4.8 6.4 0.00 0.00 0.00 69 1021.1
20260906152106 20 311 3.2 6.4 0.00 0.00 0.00 71 1021.2
20260906150606 20 267 3.2 6.4 0.00 0.00 0.00 72 1021.2
20260906145106 20 304 8.0 12.9 0.00 0.00 0.00 73 1021.1
20260906143606 19 324 4.8 8.0 0.00 0.00 0.00 75 1021.0
20260906142106 18 311 4.8 8.0 0.00 0.00 0.00 77 1021.1
20260906140606 18 309 8.0 11.3 0.00 0.00 0.00 78 1021.1
20260906135106 17 308 6.4 9.7 0.00 0.00 0.00 80 1021.0
20260906133606 17 307 4.8 8.0 0.00 0.00 0.00 79 1020.9
20260906132106 16 295 1.6 3.2 0.00 0.00 0.00 81 1020.8
20260906130606 16 297 1.6 3.2 0.00 0.00 0.00 81 1020.6
20260906125106 16 265 1.6 3.2 0.00 0.00 0.00 81 1020.8
20260906123606 16 287 4.8 8.0 0.00 0.00 0.00 79 1020.5
20260906122106 16 295 4.8 6.4 0.00 0.00 0.00 77 1020.5
20260906120606 16 294 1.6 3.2 0.00 0.00 0.00 75 1020.6
20260906115106 16 294 1.6 3.2 0.00 0.00 0.00 72 1020.5
20260906113606 16 266 1.6 3.2 0.00 0.00 0.00 70 1020.5
20260906112106 16 299 3.2 3.2 0.00 0.00 0.00 69 1020.5
20260906110606 17 61 0.0 0.0 0.00 0.00 0.00 69 1020.5
20260906105106 17 331 1.6 1.6 0.00 0.00 0.00 67 1020.2
20260906103606 17 331 0.0 1.6 0.00 0.00 0.00 65 1020.1
20260906102106 17 100 0.0 1.6 0.00 0.00 0.00 66 1019.9
20260906100606 17 279 1.6 3.2 0.00 0.00 0.00 64 1020.1
20260906095106 17 331 0.0 1.6 0.00 0.00 0.00 64 1020.1
20260906093606 18 340 1.6 1.6 0.00 0.00 0.00 63 1020.1
20260906092106 18 301 3.2 4.8 0.00 0.00 0.00 60 1019.9
20260906090606 18 307 0.0 0.0 0.00 0.00 0.00 59 1019.9
20260906085106 19 163 0.0 1.6 0.00 0.00 0.00 57 1019.8
20260906083606 19 289 0.0 1.6 0.00 0.00 0.00 56 1019.8
20260906082106 20 148 1.6 1.6 0.00 0.00 0.00 55 1020.1
20260906080606 20 272 0.0 0.0 0.00 0.00 0.00 54 1020.1
20260906075106 21 277 1.6 3.2 0.00 0.00 0.00 50 1019.9
20260906073606 21 7 0.0 0.0 0.00 0.00 0.00 48 1019.9
20260906072106 21 292 1.6 3.2 0.00 0.00 0.00 47 1019.5
20260906070606 22 274 1.6 4.8 0.00 0.00 0.00 45 1019.3
20260906065106 22 302 3.2 6.4 0.00 0.00 0.00 44 1019.2
20260906063606 22 285 4.8 6.4 0.00 0.00 0.00 45 1019.1
20260906062105 22 289 3.2 8.0 0.00 0.00 0.00 46 1019.5
20260906060605 23 277 8.0 12.9 0.00 0.00 0.00 39 1019.8
20260906055105 23 281 3.2 11.3 0.00 0.00 0.00 38 1020.1
20260906053605 23 312 3.2 6.4 0.00 0.00 0.00 39 1019.7
20260906052105 23 314 3.2 4.8 0.00 0.00 0.00 39 1019.8
20260906050605 23 289 1.6 4.8 0.00 0.00 0.00 39 1019.9
20260906045105 23 35 1.6 3.2 0.00 0.00 0.00 39 1020.1
20260906043605 23 280 1.6 3.2 0.00 0.00 0.00 36 1020.1
20260906042105 24 244 0.0 0.0 0.00 0.00 0.00 36 1020.3
20260906040605 24 212 0.0 1.6 0.00 0.00 0.00 34 1019.9
20260906035105 24 200 0.0 0.0 0.00 0.00 0.00 34 1019.5
20260906033605 25 0 1.6 1.6 0.00 0.00 0.00 34 1019.3
20260906032105 25 59 0.0 3.2 0.00 0.00 0.00 33 1019.2
20260906030605 25 276 0.0 1.6 0.00 0.00 0.00 32 1019.0
20260906025105 26 37 1.6 3.2 0.00 0.00 0.00 30 1018.9
20260906023605 27 359 1.6 3.2 0.00 0.00 0.00 29 1018.8
20260906022105 27 27 1.6 3.2 0.00 0.00 0.00 28 1018.8
20260906020605 28 356 3.2 4.8 0.00 0.00 0.00 26 1018.5
20260906015105 28 343 3.2 8.0 0.00 0.00 0.00 26 1018.3
20260906013605 29 278 0.0 0.0 0.00 0.00 0.00 24 1017.8
20260906012105 29 0 0.0 0.0 0.00 0.00 0.00 24 1017.8
20260906010605 30 292 1.6 3.2 0.00 0.00 0.00 23 1017.7
20260906005105 31 330 3.2 3.2 0.00 0.00 0.00 22 1017.7
20260906003605 33 337 1.6 1.6 0.00 0.00 0.00 20 1017.7
20260906002105 33 357 1.6 3.2 0.00 0.00 0.00 20 1017.5
20260906000605 34 40 1.6 4.8 0.00 0.00 0.00 19 1017.5
20260905235105 34 293 3.2 4.8 0.00 0.00 0.00 19 1017.3
20260905233605 35 18 3.2 4.8 0.00 0.00 0.00 19 1017.3
20260905232105 33 40 3.2 6.4 0.00 0.00 0.00 19 1017.3
20260905230605 34 350 6.4 9.7 0.00 0.00 0.00 19 1017.3
20260905225105 33 325 6.4 11.3 0.00 0.00 0.00 20 1017.2
20260905223605 33 358 3.2 8.0 0.00 0.00 0.00 19 1017.2
20260905222105 33 352 6.4 9.7 0.00 0.00 0.00 20 1017.3
20260905220605 34 341 9.7 16.1 0.00 0.00 0.00 19 1017.5
20260905215105 34 356 1.6 3.2 0.00 0.00 0.00 19 1017.7